星链-3802 (STARLINK-3802 )

导读 | 星芒AI

STARLINK-3802 是 SpaceX Starlink 项目中的一颗低轨通信卫星,属于第三代星链卫星群。该卫星旨在为全球用户提供高速、低延迟的互联网服务,尤其服务于偏远和网络基础设施薄弱的地区。它运行在约 550 公里的轨道高度,配备先进通信设备,支持宽带数据传输。作为 Starlink 卫星互联网系统的一部分,STARLINK-3802 有助于提升全球互联网接入的覆盖率和稳定性。

基本信息
目录编号:
52286
目录名称:
STARLINK-3802
国际标识:
2022-041AB
轨道中心:
EARTH
卫星名称:
星链-3802
卫星全名:
星链-3802 (STARLINK-3802 )
卫星状态:
在轨 (已飞行1340 天)
发射日期:
2022-04-21 UTC
国别 :
美国 (US)
星等 :
--
轨道信息
数据来源 国际轨道数据
星历时间: 2025-12-20T14:43:09+0800
20小时前
查看轨道信息
半长轴: 6917.88km
偏心率: 0.0001876
轨道倾角: 53.220°
近地点辐角 86.669°
升交点赤经 95.609°
平近点角 273.452°
近地点: 538.445km
远地点: 541.041km
周期: 95.438分钟
每日圈数: 15.088402
详细信息
固有亮度:
5
最大亮度:
2.5
卫星平台:
Starlink v1.5
覆盖范围:
全球
运营商:
太空探索技术公司
运营商所在国:
美国
制造商(研发单位):
太空探索技术公司
制造商所在国:
美国
使用方式:
暂无
卫星简介
星链(Starlink)计划是由太空探索技术公司(SpaceX)提出的一个巨型低轨卫星互联网星座项目,计划在2019年至2024年间在太空搭建由约1.2万颗卫星组成的“星链”网络,其中1584颗将部署在地球上空550千米处的近地轨道,并从2020年开始工作。该卫星仍在工作。
2D轨道图
3D轨道图
轨道高度分析图
轨道倾角分析图
轨道综合分析图
查看轨道综合分析图